sat.trackr.live / text

‹ back to catalog

GONETS-M 16

NORAD 44907 · 2019-096C

PAYLOAD ACTIVE UNKNOWN

§ Identity

Operator
Country
CIS
Launch date
2019-12-26
Launch site
PLMSC
Launch vehicle
Mass (kg)
RCS (m²)

External: N2YO · Heavens-Above · Gunter

§ Orbital elements

Epoch: 2026-05-25T03:53:34.658880Z

Period
115.86 min
Inclination
82.5180°
Eccentricity
0.0009618
Mean motion
12.42890926 rev/d
Perigee alt
1,486.8 km
Apogee alt
1,501.9 km
Semi-major
7,872.5 km
B*
-1.5939e-4
RAAN
98.3352°
Arg perigee
270.6012°
Mean anomaly
89.3965°
Rev number
29,077

§ Raw data

GONETS-M 161 44907U 19096C   26145.16220670 -.00000012  00000+0 -15939-3 0  99952 44907  82.5180  98.3352 0009618 270.6012  89.3965 12.42890926290770

JSON: /api/v1/satellites/44907 · /tle

For live sub-satellite position, see the globe view (requires WebGL).

§ Visibility from observer

Set your observer location to see the next 7 days of passes ≥ 10°. The values pass through the URL so the page stays shareable.

No JS? Fill the form by hand. The geolocation button needs JavaScript.

§ Radio — SatNOGS DB

ModeDescriptionDownlinkUplink
FM UHF Unknown 387.650 MHz

1 transmitter · refreshed weekly from db.satnogs.org